Regional Weather Roundup
Issued by NWS

Home | Current Version | Previous Version | Text Only | Print | Product List | Glossary On
Versions: 1 2 3 4 5 6 7 8 9 10 11 12 13 14 15 16 17 18 19 20 21 22 23 24 25 26 27 28 29 30 31 32 33 34 35 36 37 38 39 40 41 42 43 44 45 46 47 48 49 50
000
ASUS43 KDTX 260410
RWRMI
MICHIGAN HOURLY REGIONAL WEATHER ROUNDUP
NATIONAL WEATHER SERVICE DETROIT/PONTIAC MI
1200 AM EDT SUN APR 26 2015

NOTE: "FAIR" INDICATES FEW OR NO CLOUDS BELOW 12,000 FEET WITH NO
SIGNIFICANT WEATHER AND/OR OBSTRUCTION TO VISIBILITY.

MIZ047>049-052>055-059>063-066>070-074>076-081>083-260500-
SOUTHEAST LOWER MICHIGAN

CITY           SKY/WX    TMP DP  RH WIND       PRES   REMARKS
ADRIAN         CLOUDY    43  31  62 NE6       29.81R
ALMA           PTCLDY    37  25  62 N6        29.89S WCI  32
ANN ARBOR      CLOUDY    42  26  53 NE7       29.82R
BAD AXE        CLEAR     34  24  66 N6        29.88F WCI  29
CARO           CLEAR     34  25  69 CALM      29.87S
DETROIT CITY   PTCLDY    41  24  51 N10       29.83S
DETROIT        CLOUDY    43  25  49 N15       29.83R
FLINT          PTCLDY    39  24  55 NE9       29.87R WCI  33
GROSSE ILE     CLOUDY    43  27  52 N10       29.80S
HILLSDALE      CLOUDY    44  32  63 NE3       29.80R
HOWELL         CLOUDY    41  25  51 NE6       29.84R

CITY           SKY/WX    TMP DP  RH WIND       PRES   REMARKS
JACKSON        CLOUDY    42  25  50 NE10      29.82R
LAMBERTVILLE   CLOUDY    45  30  57 NE8       29.80S
LANSING        MOCLDY    40  25  55 NE12      29.87R WCI  33
LAPEER         FAIR      36  25  64 NE7       29.86S WCI  30
MASON          CLOUDY    41  27  57 NE13      29.84S
MONROE         CLOUDY    43  27  52 NE6       29.79S
PONTIAC        CLOUDY    39  24  55 NE10      29.82S WCI  32
PORT HOPE        N/A     39  30  70 N14       29.87S WCI  31
PORT HURON     CLEAR     37  28  70 N10G18    29.85R WCI  30
TRI CITIES     CLEAR     37  29  72 N8        29.89S WCI  31
MIDLAND        FAIR      39  25  57 N5        29.89S
TROY           MOCLDY    41  25  52 N7G16     29.85S
SAGINAW HB     CLEAR     34  28  80 CALM      29.88S
$$
MIZ043>046-050>051-056>058-064>065-071>073-077>080-260500-
SOUTHWEST LOWER MICHIGAN

CITY           SKY/WX    TMP DP  RH WIND       PRES   REMARKS
BATTLE CREEK   MOCLDY    43  27  53 NE10      29.84R
BENTON HARBOR  MOCLDY    42  31  64 NE7       29.82S
BIG RAPIDS     CLEAR     38  24  55 N5        29.89S WCI  35
COLDWATER      PTCLDY    42  25  50 NE7       29.81R
FREMONT        FAIR      41  20  43 E7        29.88S
HOLLAND        MOCLDY    47  26  44 E8        29.86R
GRAND RAPIDS   MOCLDY    43  24  47 NE10      29.86R
IONIA          CLOUDY    40  25  55 NE9       29.87R WCI  34
KALAMAZOO      MOCLDY    45  27  49 NE8       29.83S
LUDINGTON      CLEAR     41  24  51 E5        29.91R
MARSHALL       MOCLDY    43  25  49 NE6       29.82S
MOUNT PLEASANT CLEAR     37  26  63 CALM      29.89R
MUSKEGON       PTCLDY    44  19  36 NE10      29.88R
SOUTH HAVEN    PTCLDY    46  26  46 E7        29.83S
$$
MIZ016>042-260500-
NORTHERN LOWER MICHIGAN

CITY           SKY/WX    TMP DP  RH WIND       PRES   REMARKS
BEAVER ISLAND  CLEAR     36  22  55 N6        29.97S WCI  32
BELLAIRE       CLEAR     36  27  72 CALM      29.94R
CADILLAC       CLEAR     32  21  65 N3        29.90R
CHARLEVOIX     CLEAR     37  30  75 N9        29.98R WCI  31
FRANKFORT      CLEAR     45  22  39 NE5       29.93R
GAYLORD        CLEAR     39  22  50 N7        29.92R WCI  34
GRAYLING       CLEAR     28  22  78 CALM      29.92S
HARBOR SPRINGS CLEAR     38  23  56 CALM      29.94S
HOUGHTON LAKE  CLEAR     30  26  85 CALM      29.91R
MANISTEE       CLEAR     41  19  42 E5        29.92R
OSCODA         CLOUDY    32  25  74 CALM      29.91R
PELLSTON       MOCLDY    28  23  81 W5        29.95S WCI  23
ROGERS CITY    CLEAR     39  28  65 NW8       29.93S WCI  33
TRAVERSE CITY  CLEAR     33  28  81 CALM      29.93R
$$
MIZ007>008-015-260500-
EASTERN UPPER MICHIGAN

CITY           SKY/WX    TMP DP  RH WIND       PRES   REMARKS
KINROSS        CLEAR     34  27  75 N9        29.95S WCI  26
MACKINAC ISLAN CLOUDY    38  25  59 N9        29.95S WCI  31
NEWBERRY       CLEAR     32  24  72 N3        29.97S
S. S. MARIE    CLEAR     32  25  75 W8        29.95S WCI  25
MUNISING         N/A     30  25  81 CALM      30.01S
$$
MIZ004>006-011>014-085-260500-
CENTRAL UPPER MICHIGAN

CITY           SKY/WX    TMP DP  RH WIND       PRES   REMARKS
MANISTIQUE     CLEAR     32  22  66 NW7       29.98S WCI  26
ESCANABA       CLEAR     36  19  51 N5        29.99S WCI  32
MENOMINEE      CLEAR     37  19  48 NE8       29.97S WCI  31
SAWYER-GWINN   CLEAR     29  17  61 N5        29.99S WCI  23
$$
MIZ001>003-009>011-084-260500-
WESTERN UPPER MICHIGAN

CITY           SKY/WX    TMP DP  RH WIND       PRES   REMARKS
IRON MOUNTAIN  CLEAR     35  17  47 CALM      29.98R
HOUGHTON       CLEAR     30  23  75 NW3       30.02S
COPPER HARBOR    N/A     31  22  69 CALM      30.03S
IRONWOOD       CLEAR     30  27  86 CALM      30.00R
$$

ABBREVIATIONS USED IN REMARKS
   TC - TEMPERATURE IN CELSIUS
  WCI - WIND CHILL INDEX
   HX - HEAT INDEX
  VSB - VISIBILITY




USA.gov is the U.S. government's official web portal to all federal, state and local government web resources and services.